[[{"header":{"parameterUnit":"m.s-1","parameterCategory":2,"la1":30.2991,"la2":30.254,"lo1":-89.0895,"lo2":-89.0444,"dy":0.0017,"dx":0.0017,"nx":28,"ny":28,"refTime":"2025-04-23T21:00:00:Z","depth":"0","parameterNumber":2,"parameterNumberName":"U-component_of_CURRENTS"},"data":[0,0,0,0,0,0,0,0,0,0,0,0,0,0,0,0,0,0,0,0,0,0,0,0,0,0,0,0,0,0,0,0,0,0,0,0,0,0,0,0,0,0,0,0,0,0,0,0,0,0,0,0,0,0,0,0,0,0,0.2015,0.2016,0,0.2026,0.2026,0.2025,0.1995,0.1994,0.1994,0.1994,0.197,0.1969,0.1969,0,0,0,0,0,0,0,0,0,0,0,0,0,0.1941,0.1942,0.2015,0.2016,0.2016,0.2026,0.2026,0.2025,0.1995,0.1994,0.1994,0.1993,0.197,0.1969,0.1969,0,0,0,0,0,0,0,0,0,0,0,0,0,0.1959,0.1943,0.2015,0.2007,0.2007,0.2026,0.2026,0.2025,0.1995,0.1994,0.1994,0.1993,0.197,0.1969,0.1969,0.1977,0,0,0.1968,0.1967,0,0,0,0,0,0,0,0,0.1958,0.1961,0.2007,0.2008,0.2008,0.2014,0.1991,0.201,0.1995,0.1993,0.1994,0.1993,0.1986,0.1984,0.1979,0.1976,0.1975,0.1968,0.1967,0.1967,0.1967,0,0,0,0,0,0,0,0.1957,0.196,0.2013,0.2008,0.2009,0.1995,0.1996,0.1994,0.1987,0.1993,0.1992,0.2004,0.1985,0.1979,0.1978,0.1975,0.1968,0.1967,0.1967,0.1967,0.2017,0.2018,0,0,0,0,0,0,0.1971,0.1959,0.2013,0.2014,0.1988,0.1997,0.1998,0.2007,0.1987,0.1986,0.2004,0.2003,0.198,0.1979,0.1977,0.2005,0.1967,0.1967,0.1966,0.2015,0.2017,0.2019,0,0,0,0,0,0,0.1969,0.1975,0.2012,0.1992,0.1996,0.2,0.201,0.2008,0.2008,0.1998,0.1994,0.2007,0.198,0.1978,0.1989,0.2003,0.1967,0.1966,0.2013,0.2016,0.2018,0.2048,0,0,0,0,0,0,0.1967,0.1974,0.1979,0.1993,0.1998,0.2029,0.2011,0.2009,0.2019,0.2016,0.1999,0.1996,0.1979,0.199,0.1989,0.2002,0.1966,0.2011,0.2015,0.2017,0.2045,0.2051,0.2057,0,0,0,0,0,0.1964,0.1972,0.1979,0.1986,0.2007,0.203,0.2031,0.2027,0.2019,0.2023,0.2018,0.1996,0.2008,0.1991,0.1989,0.2002,0.201,0.2014,0.2017,0.2043,0.205,0.2057,0,0,0,0,0,0,0.1938,0.1972,0.1979,0.1996,0.2017,0.2028,0.2032,0.2034,0.2033,0.2029,0.2013,0.201,0.2028,0.2018,0.1999,0.203,0.2007,0.2011,0.2028,0.2035,0.204,0.2044,0.1965,0,0,0,0,0,0.194,0.1954,0.1987,0.1999,0.2014,0.2025,0.2033,0.2037,0.2043,0.2041,0.203,0.2029,0.2041,0.204,0.2043,0.2055,0.2064,0.2067,0.2072,0.2077,0.2082,0.2109,0.2117,0.2031,0.2031,0.2031,0,0,0.1933,0.1954,0.1961,0.1995,0.2008,0.203,0.2026,0.2046,0.2058,0.204,0.2043,0.2048,0.2052,0.2067,0.2074,0.2059,0.2111,0.2082,0.2085,0.2087,0.2114,0.2122,0.2129,0.2033,0.2033,0.2032,0,0,0.1928,0.1949,0.1961,0.1986,0.202,0.2032,0.2044,0.2063,0.2064,0.208,0.2077,0.2098,0.2095,0.2108,0.2114,0.2158,0.2144,0.2156,0.2179,0.2206,0.2213,0.2219,0.2257,0.2266,0.2154,0.2154,0.2154,0,0.1919,0.1943,0.1967,0.1991,0.2013,0.2038,0.2059,0.2071,0.2087,0.2098,0.2085,0.2117,0.2118,0.2156,0.217,0.2169,0.2182,0.2147,0.2212,0.2218,0.2224,0.2261,0.2271,0.2156,0.2155,0.2155,0.2155,0,0.1927,0.1952,0.1964,0.2003,0.2025,0.2051,0.2084,0.21,0.2108,0.2121,0.2156,0.2165,0.2185,0.2193,0.2191,0.2239,0.2236,0.2218,0.2189,0.2234,0.2271,0.2281,0.2158,0.2158,0.2157,0.2157,0,0,0.1893,0.1957,0.1962,0.1983,0.2037,0.2054,0.2089,0.2129,0.2149,0.2169,0.2198,0.223,0.2238,0.2249,0.2256,0.2278,0.2337,0.2263,0.2263,0.2292,0.2405,0.2405,0.2415,0.2321,0.2322,0.2324,0.242,0,0.1894,0.1932,0.1968,0.2005,0.2029,0.2075,0.21,0.2139,0.2166,0.2197,0.2235,0.2262,0.2259,0.2272,0.2299,0.2328,0.2361,0.2313,0.2365,0.2367,0.2354,0.2426,0.2306,0.2381,0.2429,0.2431,0.2432,0,0.1889,0.1917,0.1951,0.2008,0.2023,0.2045,0.2097,0.2128,0.2191,0.2216,0.2263,0.2288,0.235,0.2326,0.2407,0.2374,0.2396,0.2414,0.2417,0.2411,0.2385,0.2342,0.2396,0.2337,0.2446,0.2445,0.2444,0,0.1841,0.1905,0.1927,0.1949,0.2015,0.2034,0.2067,0.2125,0.2161,0.2231,0.2267,0.2332,0.2372,0.2411,0.2467,0.2434,0.2551,0.2507,0.2534,0.2535,0.2441,0.2431,0.2433,0.2563,0.2563,0.2563,0.2562,0,0.1827,0.1848,0.1904,0.1918,0.194,0.1998,0.2031,0.2076,0.2153,0.2198,0.227,0.2323,0.2392,0.2468,0.2496,0.2566,0.2581,0.2562,0.2566,0.2452,0.2441,0.2391,0.2369,0.2566,0.2565,0.2565,0.2564,0,0.1778,0.182,0.1844,0.1903,0.1918,0.193,0.2007,0.2039,0.2118,0.2185,0.2214,0.2336,0.2433,0.2515,0.2597,0.2609,0.2597,0.2684,0.2559,0.2546,0.2487,0.2471,0.2403,0.2333,0.2718,0.2719,0.2719,0,0.1757,0.1764,0.181,0.1821,0.1847,0.1882,0.191,0.2001,0.2047,0.2187,0.2219,0.2351,0.2431,0.2587,0.2628,0.2706,0.2623,0.2642,0.2554,0.2493,0.2477,0.2367,0.2305,0.2448,0.2447,0.2445,0.2444,0,0.1716,0.1729,0.175,0.1765,0.1788,0.1818,0.187,0.1905,0.2018,0.2088,0.2195,0.2277,0.2438,0.2479,0.2602,0.2623,0.2503,0.2616,0.257,0.2296,0.2155,0.2086,0.2392,0.2432,0.2433,0.2434,0.2435,0.2435,0.1676,0.1673,0.1695,0.1701,0.1728,0.1743,0.1743,0.1821,0.1883,0.1971,0.2103,0.2186,0.2317,0.2467,0.2482,0.2446,0.2431,0.2369,0.2367,0.2272,0.2156,0.2456,0.2487,0.2488,0.2489,0.249,0.2491,0,0.1617,0.1623,0.1633,0.1636,0.1629,0.1665,0.1706,0.1701,0.1737,0.1857,0.1941,0.2066,0.2133,0.2226,0.2273,0.2206,0.2074,0.2156,0.1951,0.1912,0.2196,0.2135,0.2067,0.2067,0.2067,0.2067,0.2067,0.2067,0.1591,0.1572,0.1571,0.1529,0.153,0.1492,0.1491,0.1508,0.1571,0.1642,0.1715,0.1819,0.2021,0.2124,0.2082,0.2024,0.1859,0.1774,0.1797,0.1984,0.2001,0.2018,0.1955,0.185,0.185,0.1385,0.1381,0.1379]},{"header":{"parameterUnit":"m.s-1","parameterCategory":2,"la1":30.2991,"la2":30.254,"lo1":-89.0895,"lo2":-89.0444,"dy":0.0017,"dx":0.0017,"nx":28,"ny":28,"refTime":"2025-04-23T21:00:00:Z","depth":"0","parameterNumber":3,"parameterNumberName":"V-component_of_CURRENTS"},"data":[0,0,0,0,0,0,0,0,0,0,0,0,0,0,0,0,0,0,0,0,0,0,0,0,0,0,0,0,0,0,0,0,0,0,0,0,0,0,0,0,0,0,0,0,0,0,0,0,0,0,0,0,0,0,0,0,0,0,0.0002,0.0001,0,-0.0062,-0.0062,-0.0063,-0.0091,-0.0091,-0.0091,-0.0091,-0.0114,-0.0115,-0.0115,0,0,0,0,0,0,0,0,0,0,0,0,0,0.0105,0.0104,0.0002,0.0001,0.0,-0.0062,-0.0062,-0.0063,-0.0091,-0.0091,-0.0091,-0.0091,-0.0114,-0.0114,-0.0115,0,0,0,0,0,0,0,0,0,0,0,0,0,0.0055,0.0103,0.0002,-0.0023,-0.0026,-0.0061,-0.0062,-0.0063,-0.0091,-0.0091,-0.0091,-0.0091,-0.0114,-0.0114,-0.0115,-0.0115,0,0,-0.0117,-0.0118,0,0,0,0,0,0,0,0,0.0058,0.0052,-0.0018,-0.0021,-0.0025,-0.0071,-0.0035,-0.0079,-0.0091,-0.0063,-0.0091,-0.0091,-0.0097,-0.0099,-0.0108,-0.0116,-0.0117,-0.0117,-0.0118,-0.0118,-0.0118,0,0,0,0,0,0,0,0.0062,0.0054,-0.002,-0.0019,-0.0023,-0.003,-0.0037,-0.0043,-0.0076,-0.0066,-0.0069,-0.008,-0.0098,-0.0107,-0.0109,-0.0118,-0.0117,-0.0118,-0.0118,-0.0119,-0.0121,-0.012,0,0,0,0,0,0,0.0064,0.0058,-0.0019,-0.0023,0.0014,-0.0032,-0.0039,-0.0054,-0.0077,-0.0081,-0.0079,-0.0081,-0.0106,-0.0108,-0.0109,-0.01,-0.0118,-0.0119,-0.0119,-0.0121,-0.012,-0.012,0,0,0,0,0,0,0.0067,0.0058,-0.0016,0.0014,0.0004,-0.0033,-0.0049,-0.0055,-0.0062,-0.0088,-0.0091,-0.0081,-0.0106,-0.0108,-0.011,-0.0101,-0.0119,-0.012,-0.0121,-0.0121,-0.012,-0.0087,0,0,0,0,0,0,0.007,0.0059,0.0055,0.0014,0.0002,-0.0031,-0.0049,-0.0056,-0.007,-0.0072,-0.009,-0.0093,-0.0106,-0.0109,-0.011,-0.0102,-0.012,-0.0122,-0.0121,-0.012,-0.0089,-0.0086,-0.0083,0,0,0,0,0,0.0074,0.0073,0.0055,0.0046,-0.0004,-0.0031,-0.0037,-0.0063,-0.007,-0.007,-0.0081,-0.0092,-0.0105,-0.0109,-0.0111,-0.0103,-0.0122,-0.0121,-0.012,-0.009,-0.0086,-0.0083,0,0,0,0,0,0,0.0119,0.0068,0.0049,0.0033,0.0003,-0.0037,-0.0039,-0.0058,-0.0068,-0.0066,-0.0087,-0.009,-0.0089,-0.0099,-0.0103,-0.0102,-0.0116,-0.0115,-0.0092,-0.0088,-0.0085,-0.0078,-0.0121,0,0,0,0,0,0.0125,0.0112,0.0061,0.0052,0.0037,0.0,-0.0012,-0.0032,-0.0051,-0.0056,-0.0072,-0.0083,-0.0088,-0.009,-0.0099,-0.0096,-0.0113,-0.0093,-0.009,-0.0087,-0.0083,-0.0109,-0.0108,-0.0117,-0.0117,-0.0117,0,0,0.0141,0.0111,0.0104,0.0061,0.0038,0.0026,-0.0006,-0.0022,-0.0025,-0.0055,-0.0056,-0.0073,-0.0085,-0.0085,-0.0085,-0.0091,-0.0091,-0.0086,-0.0084,-0.0081,-0.0108,-0.0107,-0.0107,-0.0117,-0.0117,-0.0117,0,0,0.0169,0.0139,0.0136,0.0114,0.0076,0.0052,0.0049,0.0009,-0.0002,-0.0012,-0.003,-0.0042,-0.0055,-0.0063,-0.0068,-0.0052,-0.0076,-0.0054,-0.0033,-0.0058,-0.0057,-0.0057,-0.0069,-0.007,-0.0052,-0.0052,-0.0052,0,0.019,0.0176,0.0134,0.0126,0.0116,0.0068,0.007,0.005,0.0016,0.0011,-0.0006,-0.0031,-0.0044,-0.0041,-0.0037,-0.0045,-0.0061,-0.0045,-0.0054,-0.0055,-0.0055,-0.0067,-0.0069,-0.005,-0.005,-0.0051,-0.0051,0,0.0213,0.0203,0.0203,0.0175,0.0162,0.0156,0.0118,0.0107,0.0083,0.0058,0.0045,0.0017,0.0002,-0.0006,-0.0017,-0.0021,-0.0031,-0.0049,-0.0064,-0.0052,-0.0065,-0.0068,-0.0048,-0.0048,-0.0049,-0.0049,0,0,0.0258,0.0224,0.0226,0.0224,0.0188,0.0181,0.0177,0.0156,0.0157,0.0113,0.0112,0.0086,0.0056,0.005,0.0028,0.0004,-0.0012,-0.0021,-0.0023,-0.0032,-0.006,-0.0033,-0.0034,-0.0037,-0.0037,-0.0037,-0.0065,0,0.029,0.0294,0.0267,0.0281,0.028,0.0242,0.0245,0.0221,0.0194,0.018,0.0135,0.0126,0.0082,0.0078,0.0045,0.0007,-0.0019,-0.0002,-0.007,-0.0072,-0.005,-0.0036,-0.0021,-0.0042,-0.0068,-0.0068,-0.0068,0,0.0323,0.032,0.0336,0.0332,0.0329,0.033,0.0326,0.0319,0.0283,0.0263,0.0227,0.019,0.0158,0.0115,0.0042,0.0053,0.0,-0.004,-0.0042,-0.003,-0.0049,-0.006,-0.0046,-0.0141,-0.0072,-0.0072,-0.0072,0,0.0379,0.0374,0.0392,0.0388,0.037,0.0377,0.0369,0.0343,0.0351,0.0313,0.0314,0.0252,0.024,0.0152,0.0074,0.0054,-0.0006,-0.0045,-0.0073,-0.0072,-0.0078,-0.0076,-0.0164,-0.0104,-0.0104,-0.0104,-0.0104,0,0.0424,0.044,0.0418,0.0426,0.0452,0.0424,0.045,0.0428,0.042,0.0439,0.0361,0.0374,0.0247,0.0198,0.01,0.0023,0.0013,-0.0062,-0.0076,-0.0064,-0.006,-0.0158,-0.022,-0.0105,-0.0105,-0.0105,-0.0105,0,0.0478,0.0465,0.0482,0.0474,0.0475,0.0491,0.0504,0.0523,0.0504,0.0528,0.0524,0.0474,0.0416,0.0297,0.0179,0.0083,-0.0063,-0.0038,-0.0003,-0.0013,-0.0135,-0.0194,-0.0297,-0.0346,-0.0083,-0.0083,-0.0082,0,0.0502,0.0516,0.052,0.0536,0.0531,0.0552,0.057,0.0562,0.0589,0.06,0.0623,0.0585,0.0579,0.0422,0.0249,0.0094,-0.0024,-0.0007,-0.0049,-0.013,-0.0208,-0.0259,-0.0298,-0.0047,-0.0046,-0.0046,-0.0045,0,0.0548,0.0548,0.0561,0.0591,0.0613,0.0641,0.0668,0.0708,0.0711,0.0751,0.0801,0.0804,0.0666,0.0529,0.0317,0.0195,-0.0074,0.0001,-0.0105,-0.0198,-0.0239,-0.0296,-0.0034,-0.004,-0.0041,-0.0041,-0.0041,-0.0041,0.0581,0.0599,0.0616,0.0644,0.0673,0.0717,0.0752,0.0808,0.0876,0.0937,0.0943,0.0972,0.0762,0.0488,0.031,-0.0001,-0.0029,-0.0115,-0.0183,-0.0228,-0.027,0.0021,0.0013,0.0013,0.0013,0.0013,0.0013,0,0.0615,0.0635,0.0668,0.0698,0.0732,0.0739,0.0807,0.0856,0.0951,0.1039,0.1099,0.1043,0.0777,0.0485,0.0072,-0.0153,-0.0259,-0.0283,-0.0374,-0.0408,-0.0167,-0.0159,-0.0177,-0.0177,-0.0177,-0.0177,-0.0177,-0.0176,0.0634,0.0669,0.0679,0.0732,0.0758,0.0804,0.0843,0.0935,0.1016,0.1136,0.1185,0.1217,0.1028,0.0262,-0.0236,-0.0351,-0.0537,-0.0565,-0.0659,-0.0515,-0.0505,-0.0496,-0.0504,-0.0594,-0.0594,-0.0874,-0.0877,-0.0879]}],[{"header":{"parameterUnit":"m.s-1","parameterCategory":2,"la1":30.2991,"la2":30.254,"lo1":-89.0895,"lo2":-89.0444,"dy":0.0017,"dx":0.0017,"nx":28,"ny":28,"refTime":"2025-04-23T21:00:00:Z","depth":"2","parameterNumber":2,"parameterNumberName":"U-component_of_CURRENTS"},"data":[0,0,0,0,0,0,0,0,0,0,0,0,0,0,0,0,0,0,0,0,0,0,0,0,0,0,0,0,0,0,0,0,0,0,0,0,0,0,0,0,0,0,0,0,0,0,0,0,0,0,0,0,0,0,0,0,0,0,0.2029,0.2031,0,0.2097,0.2096,0.2096,0.2072,0.2071,0.2071,0.207,0.2048,0.2048,0.2048,0,0,0,0,0,0,0,0,0,0,0,0,0,0.1939,0.1939,0.2029,0.2031,0.2033,0.2097,0.2096,0.2096,0.2072,0.2071,0.2071,0.207,0.2048,0.2048,0.2048,0,0,0,0,0,0,0,0,0,0,0,0,0,0.1978,0.1939,0.2028,0.2037,0.204,0.2097,0.2096,0.2096,0.2072,0.2071,0.2071,0.207,0.2048,0.2048,0.2048,0.2058,0,0,0.2047,0.2047,0,0,0,0,0,0,0,0,0.1975,0.1979,0.2034,0.2037,0.204,0.2086,0.2058,0.2083,0.2072,0.2047,0.207,0.207,0.2061,0.206,0.2058,0.2057,0.2056,0.2047,0.2047,0.2047,0.2047,0,0,0,0,0,0,0,0.1972,0.1977,0.2043,0.2036,0.204,0.206,0.2062,0.2062,0.2045,0.2049,0.205,0.2077,0.206,0.2058,0.2057,0.2056,0.2047,0.2047,0.2046,0.2046,0.2098,0.21,0,0,0,0,0,0,0.1986,0.1974,0.2041,0.2047,0.2019,0.2062,0.2065,0.2062,0.2047,0.2049,0.2078,0.2076,0.2059,0.2057,0.2056,0.2084,0.2047,0.2046,0.2046,0.2097,0.2099,0.21,0,0,0,0,0,0,0.1983,0.199,0.2039,0.2023,0.2032,0.2065,0.2061,0.2064,0.2068,0.2073,0.207,0.2083,0.2058,0.2056,0.2068,0.2082,0.2046,0.2046,0.2095,0.2097,0.21,0.2129,0,0,0,0,0,0,0.198,0.1988,0.1989,0.2023,0.2034,0.2079,0.2064,0.2066,0.2092,0.209,0.2076,0.2073,0.2058,0.2068,0.2067,0.2081,0.2046,0.2093,0.2096,0.2099,0.2126,0.2132,0.2137,0,0,0,0,0,0.1976,0.198,0.1987,0.1997,0.2033,0.2081,0.2087,0.2101,0.2093,0.2099,0.2094,0.2074,0.2086,0.2069,0.2068,0.2082,0.2092,0.2095,0.2099,0.2124,0.2131,0.2137,0,0,0,0,0,0,0.1939,0.198,0.1988,0.2003,0.2046,0.2081,0.2099,0.2108,0.2109,0.2105,0.2089,0.2087,0.2104,0.2096,0.2077,0.2109,0.2088,0.2091,0.2107,0.2114,0.212,0.2122,0.2045,0,0,0,0,0,0.1936,0.1945,0.1997,0.201,0.2034,0.2066,0.2088,0.2102,0.2118,0.2117,0.2107,0.2107,0.2119,0.2118,0.2122,0.2135,0.2142,0.2147,0.2153,0.2157,0.2161,0.2187,0.2194,0.2112,0.2112,0.2112,0,0,0.1932,0.1955,0.1963,0.2005,0.2034,0.2069,0.2074,0.2114,0.2133,0.2116,0.212,0.2125,0.2129,0.2146,0.2153,0.2138,0.2189,0.2162,0.2165,0.2167,0.2191,0.2199,0.2206,0.2114,0.2114,0.2114,0,0,0.1929,0.1945,0.1955,0.1996,0.2055,0.2078,0.2094,0.2131,0.2136,0.2157,0.2154,0.2174,0.2172,0.2185,0.2192,0.2235,0.2221,0.2234,0.2257,0.2281,0.2288,0.2294,0.2328,0.2336,0.2232,0.2232,0.2232,0,0.1923,0.1939,0.197,0.2001,0.204,0.2082,0.2113,0.2133,0.2164,0.2175,0.2161,0.2193,0.2195,0.2233,0.2247,0.2247,0.2258,0.2226,0.2287,0.2293,0.2298,0.2332,0.2341,0.2234,0.2234,0.2234,0.2234,0,0.1933,0.1958,0.1975,0.2018,0.2058,0.21,0.2147,0.2169,0.2179,0.2198,0.2232,0.2241,0.226,0.227,0.2268,0.2314,0.231,0.2293,0.2265,0.2308,0.2341,0.235,0.2237,0.2236,0.2236,0.2235,0,0,0.1888,0.1964,0.1972,0.1999,0.2075,0.2105,0.2149,0.2199,0.2221,0.2246,0.2273,0.2306,0.2313,0.2323,0.233,0.2352,0.2406,0.2336,0.2337,0.2361,0.2467,0.2393,0.2395,0.2391,0.2392,0.2393,0.248,0,0.1889,0.1933,0.1979,0.2032,0.2063,0.2128,0.216,0.2211,0.2241,0.2273,0.2309,0.2334,0.2333,0.2344,0.2371,0.2398,0.2428,0.2385,0.243,0.2431,0.2352,0.2402,0.2218,0.2272,0.2488,0.249,0.2491,0,0.1883,0.1913,0.1956,0.2033,0.2053,0.2087,0.2154,0.2195,0.2262,0.2287,0.2334,0.2357,0.2416,0.2394,0.2471,0.244,0.246,0.2476,0.2479,0.2402,0.2372,0.2263,0.228,0.2505,0.2504,0.2503,0.2502,0,0.1823,0.1901,0.1928,0.196,0.2046,0.2072,0.2118,0.2188,0.2228,0.23,0.2334,0.2396,0.2433,0.2471,0.2523,0.2494,0.26,0.2561,0.2521,0.2516,0.2365,0.2344,0.2613,0.2613,0.2613,0.2613,0.2612,0,0.1805,0.1833,0.1899,0.1919,0.195,0.2027,0.207,0.2126,0.2209,0.2255,0.2332,0.2377,0.2451,0.252,0.2548,0.2574,0.2627,0.2538,0.2533,0.2372,0.2351,0.255,0.2541,0.2616,0.2615,0.2614,0.2614,0,0.1749,0.1794,0.1827,0.1901,0.1922,0.1942,0.2044,0.208,0.2166,0.2232,0.2261,0.2381,0.2455,0.2537,0.2613,0.2599,0.2635,0.2632,0.2446,0.2416,0.2527,0.2519,0.2575,0.2573,0.2572,0.257,0.2569,0,0.1727,0.1735,0.1794,0.1806,0.1841,0.1889,0.1927,0.2035,0.2084,0.2224,0.2251,0.2361,0.2409,0.2519,0.2525,0.2567,0.2623,0.2409,0.2305,0.2533,0.2523,0.2518,0.2513,0.2133,0.2128,0.2124,0.2121,0,0.1687,0.1701,0.1726,0.1743,0.1774,0.1819,0.1884,0.1918,0.2043,0.2106,0.2198,0.2251,0.2346,0.2296,0.2353,0.2349,0.238,0.2328,0.2631,0.2159,0.2119,0.2108,0.2117,0.2088,0.2091,0.2094,0.2095,0.2097,0.1651,0.165,0.1673,0.1681,0.1711,0.1737,0.1746,0.1822,0.1881,0.194,0.2055,0.2065,0.2113,0.2076,0.205,0.2041,0.2188,0.2095,0.2106,0.2121,0.2042,0.1999,0.1933,0.1936,0.1938,0.194,0.1941,0,0.1605,0.1612,0.1617,0.162,0.1608,0.1657,0.1706,0.1697,0.1717,0.1785,0.1824,0.1699,0.1674,0.1734,0.1665,0.1679,0.1656,0.1613,0.1567,0.1603,0.1634,0.1528,0.1285,0.1282,0.128,0.1278,0,0,0.1586,0.1568,0.1562,0.151,0.1512,0.1483,0.1489,0.1486,0.1514,0.1486,0.1471,0.1564,0.1667,0.143,0.1427,0.1342,0.1454,0.1292,0.1826,0.1807,0.1835,0.1929,0.1809,0,0,0,0,0]},{"header":{"parameterUnit":"m.s-1","parameterCategory":2,"la1":30.2991,"la2":30.254,"lo1":-89.0895,"lo2":-89.0444,"dy":0.0017,"dx":0.0017,"nx":28,"ny":28,"refTime":"2025-04-23T21:00:00:Z","depth":"2","parameterNumber":3,"parameterNumberName":"V-component_of_CURRENTS"},"data":[0,0,0,0,0,0,0,0,0,0,0,0,0,0,0,0,0,0,0,0,0,0,0,0,0,0,0,0,0,0,0,0,0,0,0,0,0,0,0,0,0,0,0,0,0,0,0,0,0,0,0,0,0,0,0,0,0,0,-0.0123,-0.0124,0,-0.0173,-0.0173,-0.0174,-0.0201,-0.0201,-0.0202,-0.0202,-0.0227,-0.0227,-0.0228,0,0,0,0,0,0,0,0,0,0,0,0,0,-0.0026,-0.0028,-0.0123,-0.0124,-0.0125,-0.0173,-0.0173,-0.0174,-0.0201,-0.0201,-0.0202,-0.0202,-0.0227,-0.0227,-0.0228,0,0,0,0,0,0,0,0,0,0,0,0,0,-0.0071,-0.0028,-0.0123,-0.0144,-0.0147,-0.0173,-0.0173,-0.0174,-0.0201,-0.0201,-0.0202,-0.0202,-0.0226,-0.0227,-0.0228,-0.0229,0,0,-0.0231,-0.0231,0,0,0,0,0,0,0,0,-0.0068,-0.0074,-0.0141,-0.0143,-0.0146,-0.0182,-0.0148,-0.0192,-0.0201,-0.018,-0.0202,-0.0202,-0.021,-0.0212,-0.022,-0.023,-0.0231,-0.0231,-0.0231,-0.0231,-0.0232,0,0,0,0,0,0,0,-0.0065,-0.0072,-0.0142,-0.0141,-0.0145,-0.0142,-0.0149,-0.0157,-0.0192,-0.0182,-0.0184,-0.019,-0.0211,-0.0219,-0.0221,-0.0232,-0.0231,-0.0231,-0.0232,-0.0232,-0.0234,-0.0233,0,0,0,0,0,0,-0.0062,-0.0069,-0.0141,-0.0144,-0.0107,-0.0144,-0.0152,-0.0169,-0.0193,-0.0197,-0.019,-0.0192,-0.0218,-0.022,-0.0222,-0.0211,-0.0231,-0.0232,-0.0233,-0.0234,-0.0234,-0.0233,0,0,0,0,0,0,-0.006,-0.0068,-0.0139,-0.0107,-0.0116,-0.0146,-0.0165,-0.017,-0.0175,-0.0199,-0.0203,-0.019,-0.0218,-0.0221,-0.0222,-0.0213,-0.0233,-0.0233,-0.0235,-0.0234,-0.0233,-0.0198,0,0,0,0,0,0,-0.0057,-0.0067,-0.007,-0.0108,-0.0118,-0.0147,-0.0165,-0.0171,-0.018,-0.0182,-0.02,-0.0203,-0.0219,-0.0221,-0.0223,-0.0214,-0.0234,-0.0235,-0.0234,-0.0234,-0.0199,-0.0196,-0.0193,0,0,0,0,0,-0.0053,-0.0055,-0.0071,-0.0079,-0.0125,-0.0147,-0.0152,-0.0173,-0.0179,-0.0178,-0.019,-0.0203,-0.0217,-0.0221,-0.0224,-0.0215,-0.0236,-0.0235,-0.0234,-0.0201,-0.0196,-0.0193,0,0,0,0,0,0,-0.0012,-0.0059,-0.0077,-0.0093,-0.0116,-0.0152,-0.0149,-0.0167,-0.0177,-0.0174,-0.0197,-0.02,-0.0199,-0.021,-0.0214,-0.0213,-0.0228,-0.0228,-0.0202,-0.0198,-0.0195,-0.0187,-0.0235,0,0,0,0,0,-0.0006,-0.0019,-0.0064,-0.0073,-0.0084,-0.0116,-0.0124,-0.0141,-0.0159,-0.0163,-0.018,-0.0191,-0.0198,-0.02,-0.021,-0.0207,-0.0223,-0.0203,-0.02,-0.0197,-0.0192,-0.0215,-0.0214,-0.023,-0.023,-0.023,0,0,0.001,-0.0018,-0.0024,-0.0064,-0.0082,-0.009,-0.0121,-0.0131,-0.0132,-0.0163,-0.0163,-0.018,-0.0194,-0.0194,-0.0194,-0.0201,-0.0199,-0.0196,-0.0193,-0.019,-0.0214,-0.0213,-0.0211,-0.0229,-0.0229,-0.0229,0,0,0.0037,0.0008,0.0005,-0.0011,-0.004,-0.0062,-0.0063,-0.0098,-0.0108,-0.0116,-0.0135,-0.0146,-0.016,-0.017,-0.0175,-0.0157,-0.0182,-0.016,-0.0136,-0.0158,-0.0157,-0.0157,-0.0168,-0.0169,-0.0157,-0.0157,-0.0157,0,0.0059,0.0041,0.0005,0.0001,-0.0003,-0.0046,-0.0041,-0.0058,-0.0087,-0.0091,-0.0109,-0.0134,-0.0148,-0.0144,-0.0141,-0.0149,-0.0165,-0.0149,-0.0154,-0.0154,-0.0154,-0.0166,-0.0167,-0.0155,-0.0156,-0.0156,-0.0156,0,0.008,0.007,0.0072,0.0048,0.0042,0.004,0.001,0.0001,-0.002,-0.0043,-0.0053,-0.0083,-0.0097,-0.0105,-0.0118,-0.0119,-0.0131,-0.0149,-0.0164,-0.015,-0.0164,-0.0166,-0.0153,-0.0153,-0.0154,-0.0154,0,0,0.0117,0.0089,0.0092,0.0094,0.0069,0.0067,0.0067,0.0051,0.0056,0.0015,0.0017,-0.001,-0.0038,-0.0045,-0.0068,-0.009,-0.0103,-0.0116,-0.0118,-0.0127,-0.0147,-0.0145,-0.0147,-0.0127,-0.0127,-0.0127,-0.0155,0,0.0144,0.0149,0.013,0.0151,0.0151,0.0126,0.0133,0.0117,0.0094,0.0083,0.0041,0.0032,-0.0011,-0.0016,-0.0046,-0.0085,-0.0108,-0.0094,-0.016,-0.0162,-0.0162,-0.0149,-0.0126,-0.0148,-0.0157,-0.0157,-0.0157,0,0.0172,0.0169,0.0188,0.0197,0.0198,0.0206,0.0214,0.0212,0.0184,0.0166,0.0135,0.01,0.007,0.0027,-0.0043,-0.0033,-0.0085,-0.0125,-0.0128,-0.0139,-0.0163,-0.0166,-0.0152,-0.0161,-0.0161,-0.0161,-0.016,0,0.0216,0.0219,0.0237,0.0239,0.0235,0.0249,0.025,0.0236,0.0248,0.0217,0.022,0.0163,0.0151,0.0068,-0.0012,-0.003,-0.009,-0.0127,-0.0175,-0.0175,-0.0175,-0.0174,-0.0181,-0.0181,-0.0181,-0.0181,-0.0181,0,0.0251,0.0269,0.0259,0.027,0.0302,0.0291,0.0326,0.0312,0.0314,0.0336,0.0266,0.0278,0.016,0.0111,0.0015,-0.0073,-0.007,-0.0165,-0.0182,-0.016,-0.0158,-0.0187,-0.0187,-0.0182,-0.0182,-0.0182,-0.0182,0,0.0293,0.0283,0.0306,0.0312,0.032,0.0344,0.0377,0.0401,0.0392,0.0419,0.0416,0.0374,0.0309,0.0195,0.0078,-0.0018,-0.0116,-0.015,-0.0108,-0.012,-0.0197,-0.0196,-0.0218,-0.0218,-0.0218,-0.0218,-0.0218,0,0.0314,0.0325,0.0343,0.0361,0.0364,0.0398,0.0424,0.0433,0.0464,0.0483,0.0505,0.0464,0.044,0.0277,0.011,-0.005,-0.0086,-0.0143,-0.0183,-0.0186,-0.0201,-0.0199,-0.0197,-0.0167,-0.0166,-0.0166,-0.0166,0,0.035,0.0354,0.0368,0.0402,0.0432,0.0475,0.0514,0.0555,0.0573,0.0612,0.0654,0.0642,0.0494,0.0348,0.0131,0.0016,-0.0121,-0.0143,-0.0154,-0.0159,-0.014,-0.0154,-0.0153,-0.0163,-0.0163,-0.0164,-0.0164,-0.0164,0.038,0.0396,0.0411,0.0446,0.0482,0.0538,0.058,0.0639,0.0707,0.0754,0.0754,0.074,0.0568,0.03,0.0115,-0.0084,-0.0091,-0.0179,-0.018,-0.018,-0.0167,-0.0149,-0.0171,-0.0172,-0.0172,-0.0172,-0.0172,0,0.0413,0.0428,0.0458,0.0493,0.0531,0.0553,0.0631,0.0675,0.0763,0.0817,0.0851,0.0698,0.0541,0.0342,0.0056,-0.0125,-0.0147,-0.0187,-0.0175,-0.0176,-0.0177,-0.0164,-0.0168,-0.0168,-0.0169,-0.0169,0,0,0.043,0.0455,0.046,0.0516,0.0554,0.0613,0.066,0.0733,0.0791,0.0845,0.0853,0.0827,0.0604,0.0394,0.0159,-0.0002,-0.0053,-0.0038,-0.0022,0.0019,0.002,-0.0151,-0.0129,0,0,0,0,0]}],[{"header":{"parameterUnit":"m.s-1","parameterCategory":2,"la1":30.2991,"la2":30.254,"lo1":-89.0895,"lo2":-89.0444,"dy":0.0017,"dx":0.0017,"nx":28,"ny":28,"refTime":"2025-04-23T21:00:00:Z","depth":"4","parameterNumber":2,"parameterNumberName":"U-component_of_CURRENTS"},"data":[0,0,0,0,0,0,0,0,0,0,0,0,0,0,0,0,0,0,0,0,0,0,0,0,0,0,0,0,0,0,0,0,0,0,0,0,0,0,0,0,0,0,0,0,0,0,0,0,0,0,0,0,0,0,0,0,0,0,0.1012,0.1011,0,0.0952,0.0952,0.0951,0.0956,0.0957,0.0958,0.0958,0.1013,0.1014,0.1015,0,0,0,0,0,0,0,0,0,0,0,0,0,0.1036,0.1036,0.1012,0.1011,0.101,0.0952,0.0952,0.0951,0.0956,0.0957,0.0958,0.0959,0.1013,0.1014,0.1015,0,0,0,0,0,0,0,0,0,0,0,0,0,0.1008,0.1036,0.1012,0.1004,0.1003,0.0952,0.0952,0.0951,0.0956,0.0957,0.0958,0.0959,0.1013,0.1014,0.1015,0.1001,0,0,0.1019,0.1019,0,0,0,0,0,0,0,0,0.101,0.1008,0.1006,0.1004,0.1003,0.0961,0.098,0.0973,0.0956,0.0976,0.0958,0.096,0.1004,0.1006,0.0994,0.1003,0.1006,0.1019,0.102,0.102,0.1021,0,0,0,0,0,0,0,0.1012,0.1009,0.099,0.1005,0.1003,0.0971,0.0969,0.0978,0.0989,0.0974,0.0974,0.0964,0.1005,0.0993,0.0996,0.1007,0.1019,0.102,0.1021,0.1021,0.1113,0.1115,0,0,0,0,0,0,0.1019,0.1012,0.0992,0.0988,0.1007,0.097,0.0968,0.0975,0.0986,0.0987,0.0963,0.0964,0.099,0.0994,0.0998,0.1078,0.102,0.1021,0.1022,0.1111,0.1113,0.1115,0,0,0,0,0,0,0.102,0.1018,0.0994,0.0996,0.099,0.0969,0.0976,0.0973,0.0945,0.0976,0.098,0.0936,0.0991,0.0996,0.1038,0.1077,0.1022,0.1023,0.1109,0.1112,0.1114,0.1178,0,0,0,0,0,0,0.1021,0.102,0.1037,0.0997,0.0991,0.0976,0.0975,0.0971,0.0937,0.0938,0.0954,0.0961,0.0992,0.1036,0.1039,0.1078,0.1024,0.1107,0.111,0.1113,0.1173,0.1182,0.1189,0,0,0,0,0,0.1023,0.104,0.1039,0.1037,0.1013,0.0975,0.097,0.0958,0.0935,0.0933,0.0964,0.096,0.1059,0.1038,0.1041,0.1081,0.1105,0.1109,0.1113,0.117,0.118,0.1189,0,0,0,0,0,0,0.1056,0.104,0.1039,0.1051,0.1021,0.0976,0.0981,0.0939,0.095,0.0977,0.0974,0.0986,0.1038,0.1043,0.1019,0.1118,0.1083,0.1088,0.1125,0.1135,0.1143,0.1173,0.1025,0,0,0,0,0,0.1072,0.1088,0.105,0.106,0.1053,0.1005,0.0987,0.0981,0.0975,0.0978,0.1009,0.1041,0.1055,0.108,0.1114,0.1155,0.1146,0.1185,0.1193,0.12,0.1228,0.1221,0.1231,0.1128,0.1128,0.1128,0,0,0.1082,0.108,0.1086,0.1069,0.1053,0.1022,0.0999,0.0993,0.0993,0.0987,0.1046,0.1069,0.1069,0.1139,0.1163,0.115,0.1227,0.1205,0.1211,0.1235,0.1226,0.1236,0.1245,0.1131,0.113,0.113,0,0,0.11,0.1116,0.1128,0.1109,0.1097,0.1058,0.1042,0.1031,0.1066,0.1098,0.1106,0.1136,0.1184,0.1202,0.1198,0.1255,0.1262,0.129,0.1366,0.1359,0.1367,0.1374,0.138,0.1387,0.1303,0.1303,0.1303,0,0.1115,0.1126,0.112,0.1119,0.111,0.1058,0.1049,0.1054,0.1073,0.1127,0.114,0.12,0.1198,0.1226,0.1286,0.1269,0.1299,0.1324,0.1368,0.1375,0.1381,0.1385,0.1392,0.1307,0.1306,0.1306,0.1306,0,0.1124,0.1138,0.1144,0.1123,0.1108,0.1104,0.1097,0.1135,0.1155,0.1174,0.1262,0.1281,0.1309,0.1322,0.1332,0.1392,0.141,0.1367,0.134,0.1395,0.1396,0.1402,0.1312,0.1311,0.131,0.1309,0,0,0.1137,0.1149,0.1152,0.1153,0.1127,0.1105,0.1141,0.1158,0.1172,0.1261,0.1307,0.1364,0.14,0.1402,0.1415,0.1448,0.1508,0.1477,0.1474,0.1479,0.1548,0.1463,0.1461,0.1508,0.1509,0.151,0.1532,0,0.1142,0.1156,0.1159,0.114,0.1135,0.1138,0.1152,0.1184,0.1224,0.1276,0.1338,0.1381,0.1414,0.1448,0.1486,0.1512,0.1532,0.1509,0.15,0.1499,0.1412,0.1466,0.1515,0.1537,0.1538,0.1539,0.154,0,0.1138,0.1154,0.117,0.1172,0.1171,0.1151,0.1174,0.1193,0.1257,0.1315,0.1386,0.1427,0.1513,0.1501,0.1581,0.1594,0.1594,0.1601,0.1599,0.1506,0.1425,0.147,0.155,0.1549,0.1549,0.1548,0.1547,0,0.1135,0.1149,0.117,0.117,0.1161,0.1199,0.119,0.123,0.1278,0.1352,0.1391,0.1474,0.1528,0.1567,0.1624,0.1627,0.1693,0.1643,0.155,0.1544,0.1584,0.1576,0.1657,0.1657,0.1657,0.1657,0.1657,0,0.1121,0.1132,0.1177,0.1181,0.1199,0.121,0.1237,0.1254,0.1305,0.1338,0.1421,0.1451,0.1566,0.1621,0.1642,0.1641,0.1684,0.1588,0.1548,0.1611,0.1606,0.1588,0.1579,0.1658,0.1658,0.1658,0.1658,0,0.1094,0.1128,0.1148,0.1184,0.1198,0.1216,0.1254,0.1259,0.1324,0.1365,0.1408,0.1492,0.1564,0.1636,0.1684,0.1644,0.1638,0.1602,0.1699,0.166,0.1492,0.1487,0.1505,0.1502,0.15,0.1498,0.1496,0,0.1074,0.1092,0.115,0.1168,0.1188,0.1224,0.1229,0.1272,0.1277,0.1363,0.1367,0.1481,0.1528,0.1533,0.1602,0.1617,0.1586,0.157,0.1523,0.1519,0.1479,0.1477,0.1475,0.1492,0.1492,0.1491,0.1491,0,0.1032,0.1075,0.1096,0.1143,0.1163,0.117,0.1191,0.1184,0.1226,0.131,0.1312,0.1352,0.1414,0.1467,0.1504,0.1497,0.1586,0.1545,0.1549,0.1505,0.1504,0.1466,0.1467,0.1483,0.1484,0.1485,0.1485,0,0.1008,0.1015,0.1063,0.1089,0.112,0.1095,0.1108,0.1101,0.1117,0.1199,0.1197,0.1289,0.1388,0.1401,0.1421,0.144,0.1408,0.1351,0.1364,0.1374,0.1325,0.1304,0.1206,0,0,0,0,0,0.0969,0.0968,0.0994,0.1012,0.1043,0.1054,0.1062,0.1073,0.1116,0.1086,0.114,0.1182,0.1229,0.1271,0.1267,0.1365,0.1418,0.1352,0.1359,0.1438,0.1447,0.1403,0,0,0,0,0,0,0.094,0.0963,0.097,0.0948,0.0947,0.0951,0.0945,0.097,0.095,0.1018,0.1049,0.1127,0.1193,0.1245,0.1258,0.1274,0.1254,0.1419,0.1416,0.1433,0.1441,0.1449,0.1407,0,0,0,0,0]},{"header":{"parameterUnit":"m.s-1","parameterCategory":2,"la1":30.2991,"la2":30.254,"lo1":-89.0895,"lo2":-89.0444,"dy":0.0017,"dx":0.0017,"nx":28,"ny":28,"refTime":"2025-04-23T21:00:00:Z","depth":"4","parameterNumber":3,"parameterNumberName":"V-component_of_CURRENTS"},"data":[0,0,0,0,0,0,0,0,0,0,0,0,0,0,0,0,0,0,0,0,0,0,0,0,0,0,0,0,0,0,0,0,0,0,0,0,0,0,0,0,0,0,0,0,0,0,0,0,0,0,0,0,0,0,0,0,0,0,-0.0062,-0.0062,0,-0.0083,-0.0083,-0.0083,-0.0098,-0.0098,-0.0098,-0.0098,-0.0108,-0.0108,-0.0108,0,0,0,0,0,0,0,0,0,0,0,0,0,-0.0028,-0.0029,-0.0062,-0.0062,-0.0063,-0.0083,-0.0083,-0.0083,-0.0098,-0.0098,-0.0098,-0.0098,-0.0108,-0.0108,-0.0108,0,0,0,0,0,0,0,0,0,0,0,0,0,-0.0045,-0.0029,-0.0062,-0.0073,-0.0074,-0.0083,-0.0083,-0.0083,-0.0098,-0.0098,-0.0098,-0.0098,-0.0108,-0.0108,-0.0108,-0.0105,0,0,-0.0109,-0.0109,0,0,0,0,0,0,0,0,-0.0044,-0.0046,-0.0071,-0.0072,-0.0073,-0.0088,-0.0075,-0.009,-0.0098,-0.0088,-0.0098,-0.0099,-0.0101,-0.0101,-0.0104,-0.0105,-0.0106,-0.0109,-0.0109,-0.0109,-0.0109,0,0,0,0,0,0,0,-0.0043,-0.0045,-0.007,-0.0071,-0.0073,-0.0074,-0.0077,-0.0078,-0.0092,-0.0089,-0.009,-0.0093,-0.0101,-0.0104,-0.0105,-0.0106,-0.0109,-0.0109,-0.0109,-0.0109,-0.0103,-0.0103,0,0,0,0,0,0,-0.0041,-0.0044,-0.0069,-0.007,-0.0059,-0.0075,-0.0078,-0.0083,-0.0093,-0.0094,-0.0093,-0.0094,-0.0104,-0.0104,-0.0105,-0.0096,-0.0109,-0.0109,-0.0109,-0.0103,-0.0103,-0.0102,0,0,0,0,0,0,-0.0041,-0.0044,-0.0068,-0.0058,-0.0061,-0.0075,-0.0081,-0.0083,-0.0072,-0.0096,-0.0097,-0.0078,-0.0104,-0.0105,-0.0105,-0.0097,-0.0109,-0.011,-0.0103,-0.0103,-0.0103,-0.0082,0,0,0,0,0,0,-0.004,-0.0043,-0.0042,-0.0058,-0.0062,-0.0065,-0.0081,-0.0083,-0.0074,-0.0075,-0.0083,-0.0085,-0.0104,-0.0105,-0.0105,-0.0098,-0.011,-0.0104,-0.0103,-0.0103,-0.0083,-0.0081,-0.0079,0,0,0,0,0,-0.0038,-0.0037,-0.0042,-0.0045,-0.0062,-0.0064,-0.0066,-0.0076,-0.0073,-0.0066,-0.0078,-0.0084,-0.0102,-0.0105,-0.0106,-0.0097,-0.0104,-0.0103,-0.0103,-0.0084,-0.0082,-0.0079,0,0,0,0,0,0,-0.0021,-0.0039,-0.0045,-0.0049,-0.0052,-0.0067,-0.0065,-0.0062,-0.0065,-0.007,-0.0081,-0.0084,-0.0082,-0.009,-0.0092,-0.0094,-0.0103,-0.0103,-0.0089,-0.0087,-0.0085,-0.0075,-0.011,0,0,0,0,0,-0.0017,-0.0021,-0.0035,-0.0035,-0.0038,-0.0045,-0.0045,-0.0052,-0.0059,-0.006,-0.0072,-0.0081,-0.0082,-0.0083,-0.0094,-0.009,-0.0097,-0.0085,-0.0083,-0.0081,-0.0074,-0.0073,-0.007,-0.01,-0.01,-0.01,0,0,-0.001,-0.002,-0.0021,-0.0031,-0.0037,-0.0032,-0.0045,-0.0046,-0.0039,-0.006,-0.0061,-0.0074,-0.0079,-0.0084,-0.0083,-0.0088,-0.008,-0.008,-0.0079,-0.0072,-0.0072,-0.0069,-0.0066,-0.01,-0.01,-0.01,0,0,0.0003,-0.0007,-0.0006,-0.0009,-0.0018,-0.0019,-0.0012,-0.0027,-0.0032,-0.0035,-0.0048,-0.0048,-0.0062,-0.0062,-0.0061,-0.0047,-0.0069,-0.0059,-0.0041,-0.004,-0.0037,-0.0035,-0.0055,-0.0054,-0.0058,-0.0058,-0.0058,0,0.0012,0.0009,-0.0003,-0.0003,-0.0,-0.0006,0.0003,0.0,-0.0013,-0.0015,-0.0034,-0.0039,-0.0045,-0.0026,-0.0035,-0.0039,-0.006,-0.0049,-0.0037,-0.0035,-0.0033,-0.0053,-0.0053,-0.0057,-0.0057,-0.0057,-0.0057,0,0.0024,0.0023,0.0024,0.0025,0.0032,0.0034,0.003,0.0031,0.0024,0.0017,0.0017,-0.0,0.0,-0.0004,-0.0019,-0.0006,-0.0033,-0.0035,-0.0042,-0.0029,-0.0052,-0.0052,-0.0055,-0.0056,-0.0056,-0.0056,0,0,0.004,0.0033,0.0034,0.0039,0.0043,0.0051,0.0064,0.0074,0.0091,0.0064,0.0078,0.0068,0.0051,0.0052,0.0036,0.003,0.0019,-0.0006,-0.0007,-0.0025,-0.0008,-0.0034,-0.0037,0.0007,0.0007,0.0007,-0.0035,0,0.0053,0.006,0.0056,0.008,0.0086,0.0087,0.0106,0.0113,0.0112,0.0118,0.0105,0.0108,0.0076,0.0071,0.0062,0.0033,0.0021,0.0029,-0.0019,-0.002,-0.0044,-0.0036,0.0009,-0.0035,-0.0035,-0.0035,-0.0035,0,0.0068,0.007,0.0087,0.0104,0.0108,0.0127,0.0159,0.0169,0.018,0.0177,0.0176,0.0155,0.0149,0.0117,0.008,0.0077,0.0035,0.0009,0.0007,-0.0021,-0.0046,-0.0048,-0.0036,-0.0036,-0.0036,-0.0036,-0.0036,0,0.0088,0.0096,0.0112,0.0116,0.0135,0.0149,0.0166,0.0186,0.0204,0.0213,0.0223,0.0206,0.02,0.0152,0.0082,0.0076,0.0029,0.0023,-0.0037,-0.004,-0.0014,-0.0016,0.0,0.0,0.0001,0.0001,0.0001,0,0.0105,0.0119,0.0122,0.0132,0.0162,0.0167,0.0205,0.022,0.0247,0.0275,0.025,0.0263,0.0205,0.0163,0.0096,0.0023,0.0042,-0.0032,-0.0047,-0.0007,-0.0008,-0.0015,-0.0016,-0.0001,-0.0001,-0.0,-0.0,0,0.0124,0.0124,0.0144,0.0161,0.0171,0.0192,0.0232,0.0259,0.0281,0.0318,0.032,0.0308,0.0252,0.018,0.0105,0.0049,-0.002,-0.0053,-0.0019,-0.0032,-0.0096,-0.0096,-0.0114,-0.0115,-0.0116,-0.0117,-0.0117,0,0.0133,0.0142,0.0165,0.0182,0.019,0.0221,0.0245,0.0275,0.0309,0.0342,0.0362,0.0323,0.0297,0.0179,0.0096,-0.0028,-0.0048,-0.0089,-0.008,-0.0092,-0.0105,-0.0103,-0.0101,-0.0119,-0.0119,-0.0119,-0.012,0,0.0149,0.0156,0.017,0.0202,0.0229,0.0263,0.03,0.0328,0.0365,0.0384,0.0398,0.0337,0.0276,0.0181,0.0079,-0.001,-0.0063,-0.01,-0.0098,-0.009,-0.0099,-0.011,-0.0107,-0.0123,-0.0123,-0.0122,-0.0122,0,0.0162,0.0171,0.0189,0.022,0.0257,0.0295,0.0313,0.0349,0.0379,0.0416,0.0415,0.0352,0.0323,0.0189,0.0096,0.0004,-0.0017,-0.0046,-0.0047,-0.0045,-0.0016,-0.0017,-0.0025,0,0,0,0,0,0.017,0.0176,0.0206,0.0239,0.028,0.03,0.0348,0.0366,0.0397,0.041,0.0419,0.036,0.0238,0.019,0.0094,0.0065,-0.0045,-0.0052,-0.0082,-0.0141,-0.0138,-0.0119,0,0,0,0,0,0,0.0172,0.019,0.0201,0.0252,0.0279,0.0323,0.0351,0.0372,0.0385,0.0405,0.0344,0.0327,0.0208,0.0292,0.009,0.0063,0.0028,-0.0104,-0.0107,-0.0144,-0.014,-0.0137,-0.0116,0,0,0,0,0]}]]